Waterloo, IA

7:18 PM CDT on October 19, 2017 (GMT -0500)
Waterloo Municipal

Weather History for KALO - May, 2013

Change the Weather History Date:

Friday, May 3, 2013

  Actual Average Record
Temperature  
Mean Temperature 34 °F 56 °F  
Max Temperature 36 °F 68 °F 90 °F (1949)
Min Temperature 32 °F 44 °F 22 °F (2005)
Degree Days  
Heating Degree Days 31 10  
Month to date heating degree days 76 30  
Since 1 July heating degree days 7087 6846  
Cooling Degree Days 0 1  
Month to date cooling degree days 0 3  
Year to date cooling degree days 4 11  
Moisture  
Dew Point 31 °F    
Average Humidity 93    
Maximum Humidity 96    
Minimum Humidity 89    
Precipitation  
Precipitation 1.35 in 0.14 in 1.40 in (1902)
Month to date precipitation 2.14 0.42  
Year to date precipitation 14.91 8.01  
Snow  
Snow 0.80 in 0.00 in 0.80 in (2013)
Month to date snowfall 1.7 0.0  
Since 1 July snowfall 50.1 35.3  
Snow Depth 2.00 in    
Sea Level Pressure  
Sea Level Pressure 30.15 in    
Wind  
Wind Speed 14 mph (North)    
Max Wind Speed 22 mph    
Max Gust Speed 26 mph    
Visibility 5 miles    
Events Rain , Snow    
T = Trace of Precipitation, MM = Missing Value Source: NWS Daily Summary

Daily Weather History Graph

Daily Weather History Graph

Search for Another Location

Airport or City:

Trip Planner

Search our weather history database for the weather conditions in past years. The results will help you decide how hot, cold, wet, or windy it might be!

Date:

Astronomy

May. 03, 2013 Rise Set
Actual Time 6:01 AM CDT 8:12 PM CDT
Civil Twilight 5:30 AM CDT 8:43 PM CDT
Nautical Twilight 4:52 AM CDT 9:21 PM CDT
Astronomical Twilight 4:10 AM CDT 10:03 PM CDT
Moon 2:34 AM CDT (5/3) 1:59 PM CDT (5/3)
Length of Visible Light 15h 12m
Length of Day
14h 10m
Last Quarter, 37% of the Moon is Illuminated
May 3
Last Quarter
May 9
New
May 17
First Quarter
May 24
Full
May 31
Last Quarter

Hourly Weather History & Observations

Time (CDT) Temp. Windchill Dew Point Humidity Pressure Visibility Wind Dir Wind Speed Gust Speed Precip Events Conditions
12:06 AM 33.8 °F 22.5 °F 30.2 °F 87% 30.30 in 1.8 mi North 19.6 mph - 0.00 in Snow Light Snow
12:37 AM 32.0 °F 20.8 °F 30.2 °F 93% 30.29 in 1.8 mi North 17.3 mph 23.0 mph 0.02 in Snow Light Snow
12:44 AM 32.0 °F 21.2 °F 30.2 °F 93% 30.29 in 1.2 mi North 16.1 mph 24.2 mph 0.03 in Snow Light Snow
12:54 AM 32.0 °F 20.8 °F 30.9 °F 96% 30.32 in 2.0 mi North 17.3 mph - 0.03 in Snow Light Snow
12:57 AM 32.0 °F 20.8 °F 30.2 °F 93% 30.28 in 1.8 mi North 17.3 mph - 0.01 in Snow Light Snow
1:06 AM 32.0 °F 20.8 °F 30.2 °F 93% 30.28 in 1.5 mi North 17.3 mph - 0.01 in Snow Light Snow
1:39 AM 32.0 °F 21.2 °F 30.2 °F 93% 30.27 in 3.0 mi North 16.1 mph 24.2 mph 0.03 in Snow Light Snow
1:54 AM 32.0 °F 20.5 °F 30.9 °F 96% 30.29 in 3.0 mi North 18.4 mph - 0.03 in Snow Light Snow
2:38 AM 32.0 °F 20.5 °F 30.2 °F 93% 30.23 in 2.5 mi North 18.4 mph - 0.00 in Snow Light Snow
2:54 AM 32.0 °F 19.8 °F 30.2 °F 93% 30.21 in 2.5 mi North 20.7 mph - N/A Snow Light Snow
3:08 AM 32.0 °F 20.1 °F 30.2 °F 93% 30.20 in 3.0 mi North 19.6 mph - 0.00 in Snow Light Snow
3:54 AM 32.0 °F 20.1 °F 30.0 °F 92% 30.22 in 9.0 mi North 19.6 mph 26.5 mph 0.00 in   Overcast
4:37 AM 32.0 °F 20.5 °F 30.2 °F 93% 30.19 in 10.0 mi North 18.4 mph - 0.00 in   Overcast
4:54 AM 32.0 °F 21.2 °F 30.0 °F 92% 30.22 in 9.0 mi North 16.1 mph - 0.00 in Snow Light Snow
5:54 AM 32.0 °F 21.2 °F 30.0 °F 92% 30.20 in 10.0 mi North 16.1 mph - 0.01 in   Overcast
6:05 AM 32.0 °F 20.5 °F 30.2 °F 93% 30.16 in 9.0 mi North 18.4 mph - 0.00 in Rain Light Freezing Rain
6:21 AM 32.0 °F 21.2 °F 30.2 °F 93% 30.17 in 6.0 mi North 16.1 mph 21.9 mph 0.00 in Rain Light Freezing Rain
6:54 AM 32.0 °F 22.5 °F 30.0 °F 92% 30.21 in 7.0 mi North 12.7 mph - 0.01 in Rain Light Freezing Rain
7:10 AM 32.0 °F 22.1 °F 30.2 °F 93% 30.18 in 2.0 mi North 13.8 mph - 0.01 in Rain Light Freezing Rain
7:25 AM 32.0 °F 22.1 °F 30.2 °F 93% 30.18 in 2.5 mi North 13.8 mph - 0.04 in Snow Light Snow
7:36 AM 32.0 °F 22.5 °F 30.2 °F 93% 30.18 in 3.0 mi North 12.7 mph - 0.05 in Snow Light Snow
7:38 AM 32.0 °F 22.5 °F 30.2 °F 93% 30.18 in 2.5 mi North 12.7 mph - 0.05 in Snow Light Snow
7:51 AM 32.0 °F 22.1 °F 30.2 °F 93% 30.18 in 1.8 mi North 13.8 mph - 0.06 in Snow Light Snow
7:52 AM 32.0 °F 22.1 °F 30.2 °F 93% 30.18 in 1.8 mi North 13.8 mph - 0.06 in Snow Light Snow
7:54 AM 32.0 °F 22.5 °F 30.0 °F 92% 30.21 in 1.8 mi North 12.7 mph - 0.07 in Snow Light Snow
8:05 AM 32.0 °F 22.1 °F 30.2 °F 93% 30.17 in 2.0 mi North 13.8 mph - 0.02 in Snow Light Snow
8:09 AM 32.0 °F 22.1 °F 30.2 °F 93% 30.17 in 3.0 mi North 13.8 mph - 0.02 in Snow Light Snow
8:54 AM 32.0 °F 21.2 °F 30.0 °F 92% 30.16 in 6.0 mi North 16.1 mph - 0.05 in   Overcast
9:06 AM 32.0 °F 21.2 °F 30.2 °F 93% 30.13 in 6.0 mi North 16.1 mph - 0.01 in   Overcast
9:17 AM 32.0 °F 21.6 °F 30.2 °F 93% 30.12 in 9.0 mi North 15.0 mph - 0.02 in   Overcast
9:54 AM 33.1 °F 23.0 °F 30.0 °F 89% 30.15 in 9.0 mi North 15.0 mph - 0.05 in Rain Light Rain
10:54 AM 33.1 °F 23.0 °F 30.9 °F 92% 30.13 in 8.0 mi North 15.0 mph - 0.03 in Rain Light Rain
11:54 AM 33.1 °F 22.2 °F 30.9 °F 92% 30.10 in 7.0 mi North 17.3 mph - 0.06 in Rain Light Rain
12:54 PM 33.1 °F 23.4 °F 30.9 °F 92% 30.10 in 5.0 mi North 13.8 mph - 0.08 in Rain Light Rain
1:54 PM 34.0 °F 24.6 °F 32.0 °F 92% 30.08 in 9.0 mi North 13.8 mph - 0.06 in Rain Light Rain
2:54 PM 34.0 °F 24.6 °F 32.0 °F 92% 30.07 in 7.0 mi North 13.8 mph - 0.07 in Rain Light Rain
3:54 PM 35.1 °F 27.4 °F 32.0 °F 89% 30.07 in 7.0 mi North 10.4 mph - 0.05 in Rain Light Rain
4:54 PM 35.1 °F 24.8 °F 33.1 °F 92% 30.04 in 8.0 mi North 17.3 mph - 0.03 in Rain Light Rain
5:54 PM 35.1 °F 28.6 °F 33.1 °F 92% 30.06 in 10.0 mi North 8.1 mph - 0.03 in Rain Light Rain
6:54 PM 35.1 °F 25.5 °F 33.1 °F 92% 30.04 in 10.0 mi North 15.0 mph - 0.01 in Rain Light Rain
7:54 PM 35.1 °F 26.4 °F 33.1 °F 92% 30.03 in 10.0 mi North 12.7 mph - 0.02 in Rain Light Rain
8:54 PM 35.1 °F 26.9 °F 34.0 °F 96% 30.04 in 7.0 mi North 11.5 mph - 0.04 in Rain Light Rain
9:54 PM 36.0 °F 28.0 °F 34.0 °F 93% 30.03 in 10.0 mi North 11.5 mph - 0.04 in Rain Light Rain
10:31 PM 35.6 °F 26.6 °F 33.8 °F 93% 29.99 in 8.0 mi North 13.8 mph - 0.02 in Rain Light Rain
10:54 PM 36.0 °F 29.6 °F 34.0 °F 93% 30.05 in 5.0 mi North 8.1 mph - 0.05 in Rain Rain
11:16 PM 35.6 °F 26.6 °F 33.8 °F 93% 29.97 in 6.0 mi North 13.8 mph - 0.08 in Rain Light Rain
11:54 PM 36.0 °F 29.0 °F 34.0 °F 93% 30.01 in 3.0 mi North 9.2 mph - 0.18 in Rain Heavy Rain
11:59 PM 35.6 °F 27.1 °F 33.8 °F 93% 29.98 in 3.0 mi North 12.7 mph - 0.03 in Rain Heavy Rain